Wakefield, VA

2:26 PM EDT on September 25, 2016 (GMT -0400)
Wakefield Municipal

Weather History for KAKQ - April, 2013

Change the Weather History Date:

Saturday, April 20, 2013

  Actual Average (KJGG) Record (KJGG)
Temperature  
Mean Temperature 56 °F -  
Max Temperature 66 °F 72 °F 92 °F (1985)
Min Temperature 43 °F 44 °F 27 °F (1988)
Degree Days  
Heating Degree Days 10    
Growing Degree Days 6 (Base 50)    
Moisture  
Dew Point 46 °F    
Average Humidity 71    
Maximum Humidity 94    
Minimum Humidity 39    
Precipitation  
Precipitation 0.19 in - - ()
Sea Level Pressure  
Sea Level Pressure 30.02 in    
Wind  
Wind Speed 6 mph (SW)    
Max Wind Speed 10 mph    
Max Gust Speed 22 mph    
Visibility 10 miles    
Events Rain    
Averages and records for this station are not official NWS values.
T = Trace of Precipitation, MM = Missing Value Source: NWS Daily Summary

Daily Weather History Graph

Daily Weather History Graph

Search for Another Location

Airport or City:

Trip Planner

Search our weather history database for the weather conditions in past years. The results will help you decide how hot, cold, wet, or windy it might be!

Date:

Astronomy

Apr. 20, 2013 Rise Set
Actual Time 6:26 AM EDT 7:47 PM EDT
Civil Twilight 5:59 AM EDT 8:14 PM EDT
Nautical Twilight 5:27 AM EDT 8:47 PM EDT
Astronomical Twilight 4:53 AM EDT 9:21 PM EDT
Moon 2:36 PM EDT (4/20) 3:07 AM EDT (4/20)
Length of Visible Light 14h 14m
Length of Day
13h 20m
Waxing Gibbous, 71% of the Moon is Illuminated
Apr 20
Waxing Gibbous
Apr 25
Full
May 2
Last Quarter
May 9
New
May 18
First Quarter

Hourly Weather History & Observations

Time (EDT) Temp. Dew Point Humidity Pressure Visibility Wind Dir Wind Speed Gust Speed Precip Events Conditions
12:54 AM 66.0 °F 63.0 °F 90% 29.80 in 8.0 mi SSW 9.2 mph 17.3 mph 0.09 in Rain Light Rain
1:46 AM 66.2 °F 62.6 °F 88% 29.80 in 10.0 mi SW 8.1 mph - 0.00 in Rain Light Rain
1:54 AM 66.0 °F 64.0 °F 93% 29.80 in 10.0 mi SW 6.9 mph - 0.00 in Rain Light Rain
2:27 AM 66.2 °F 64.4 °F 94% 29.80 in 10.0 mi SSW 8.1 mph - 0.04 in Rain Light Rain
2:35 AM 66.2 °F 62.6 °F 88% 29.79 in 10.0 mi SSW 10.4 mph 17.3 mph 0.04 in Rain Light Rain
2:54 AM 61.0 °F 57.0 °F 87% 29.82 in 10.0 mi West 9.2 mph 21.9 mph 0.04 in Rain Light Rain
3:17 AM 59.0 °F 55.4 °F 88% 29.85 in 5.0 mi West 8.1 mph - 0.03 in Rain Light Rain
3:54 AM 57.0 °F 54.0 °F 89% 29.87 in 10.0 mi WNW 6.9 mph - 0.06 in Rain Light Rain
4:07 AM 57.2 °F 53.6 °F 88% 29.88 in 10.0 mi Variable 4.6 mph - 0.00 in Rain Light Rain
4:40 AM 55.4 °F 51.8 °F 88% 29.91 in 10.0 mi Variable 5.8 mph - 0.00 in Rain Light Rain
4:54 AM 55.0 °F 48.0 °F 77% 29.92 in 10.0 mi Variable 4.6 mph - 0.00 in   Overcast
5:26 AM 53.6 °F 50.0 °F 88% 29.92 in 10.0 mi North 5.8 mph - N/A   Overcast
5:54 AM 53.1 °F 48.0 °F 83% 29.96 in 10.0 mi NNE 3.5 mph - N/A   Overcast
6:54 AM 52.0 °F 48.0 °F 86% 29.99 in 10.0 mi Calm Calm - N/A   Overcast
7:54 AM 53.1 °F 39.0 °F 59% 30.03 in 10.0 mi Calm Calm - N/A   Overcast
8:54 AM 53.1 °F 42.1 °F 66% 30.06 in 10.0 mi Variable 3.5 mph - N/A   Clear
9:54 AM 53.1 °F 41.0 °F 64% 30.09 in 10.0 mi Variable 3.5 mph - N/A   Clear
10:54 AM 54.0 °F 36.0 °F 51% 30.12 in 10.0 mi Variable 4.6 mph - N/A   Clear
11:54 AM 55.9 °F 35.1 °F 45% 30.12 in 10.0 mi Variable 6.9 mph - N/A   Clear
12:54 PM 55.0 °F 33.1 °F 43% 30.12 in 10.0 mi Calm Calm - N/A   Clear
1:54 PM 57.9 °F 33.1 °F 39% 30.12 in 10.0 mi Calm Calm - N/A   Clear
2:54 PM 57.9 °F 35.1 °F 42% 30.12 in 10.0 mi Variable 3.5 mph - N/A   Clear
3:54 PM 59.0 °F 35.1 °F 41% 30.11 in 10.0 mi Calm Calm - N/A   Clear
4:54 PM 59.0 °F 35.1 °F 41% 30.12 in 10.0 mi SE 4.6 mph - N/A   Clear
5:54 PM 59.0 °F 36.0 °F 42% 30.14 in 10.0 mi Variable 3.5 mph - N/A   Clear
6:54 PM 57.9 °F 36.0 °F 44% 30.16 in 10.0 mi South 4.6 mph - N/A   Clear
7:54 PM 55.0 °F 42.1 °F 62% 30.18 in 10.0 mi Calm Calm - N/A   Clear
8:54 PM 50.0 °F 43.0 °F 77% 30.24 in 10.0 mi Calm Calm - N/A   Clear
9:54 PM 48.0 °F 43.0 °F 83% 30.26 in 10.0 mi Calm Calm - N/A   Clear
10:54 PM 45.0 °F 42.1 °F 90% 30.28 in 10.0 mi Calm Calm - N/A   Clear
11:54 PM 43.0 °F 39.9 °F 89% 30.29 in 10.0 mi Calm Calm - N/A   Clear